Central Illinois Regional Airport at Bloomington-Normal

Jump to: basic info | weather | frequencies | runways | comments

Related pages: nearby airports | nearby navaids | notams | map

Basic information (top)

Codes: BMI KBMI
Location: lon 40.477100, lat -88.915901, elev 871 ft / 265 m msl
Status: large_airport
Scheduled airline service: yes
Links: Wikipedia Mobile

Weather (top)

Current conditions (rec'd 2014/12/19 11:56Z):

KBMI 191156Z 00000KT 7SM CLR M07/M08 A3029 RMK AO2 55002 T10661077 11061 21077 SLP279

Airport forecast (rec'd 2014/12/19 12:45Z):

TAF KBMI 191141Z 1912/2012 30001KT 5SM BR SKC 
     FM191500 07002KT P6SM SCT035 
     FM200200 VRB03KT P6SM SCT012 BKN035

Frequencies (top)

Verify before use: may be inaccurate or out of date.

A/D: 118.05 MHz (PEORIA APP/DEP)
ASOS: 135.35 MHz (ASOS)
ATIS: 135.35 MHz (ATIS)
CTAF: 124.6 MHz (CTAF)
GND: 121.65 MHz (GND)
RDO: 108.2 MHz (KANKAKEE RDO)
TWR: 124.6 MHz (BLOOMINGTON TWR)
UNIC: 122.95 MHz (UNICOM)

Runways (top)

02/20: 8,000 x 150 ft (2,438 x 46 m) — paved — lighted

03/21 [CLOSED]: 3,723 x 100 ft (1,135 x 30 m) — paved — not lighted

11/29: 6,525 x 150 ft (1,989 x 46 m) — other (PEM) — lighted

Latest comments (top)

No comments yet for Central Illinois Regional Airport at Bloomington-Normal

More... (top)

See also NOTAMs and nearby airports and navaids, or visit the Central Illinois Regional Airport at Bloomington-Normal page at the main OurAirports website..